Date,TemperatureHighF,TemperatureAvgF,TemperatureLowF,DewpointHighF,DewpointAvgF,DewpointLowF,HumidityHigh,HumidityAvg,HumidityLow,PressureMaxIn,PressureMinIn,WindSpeedMaxMPH,WindSpeedAvgMPH,GustSpeedMaxMPH,PrecipitationSumIn
2013-8-1,81,73,68,75,71,67,100,95,73,30.02,29.79,5,0,0,0.76
2013-8-2,85,75,67,71,68,66,100,82,55,29.96,29.84,4,0,0,0.01
2013-8-3,77,71,67,71,68,65,99,89,72,29.97,29.91,1,0,0,0.04
2013-8-4,80,70,60,67,61,55,99,76,44,30.02,29.89,12,1,0,0.01
2013-8-5,77,67,56,64,59,56,99,79,56,30.11,30.01,7,0,0,0.00
2013-8-6,73,68,64,69,66,61,97,91,84,30.09,30.01,7,1,9,0.02
2013-8-7,80,74,69,75,72,68,99,91,79,30.08,30.00,10,2,0,0.01
2013-8-8,85,78,74,77,74,72,95,87,73,30.04,29.98,12,2,0,0.00
2013-8-9,90,81,75,79,76,74,99,86,64,29.98,29.84,8,1,0,0.06
2013-8-10,82,75,68,75,70,63,100,85,55,30.08,29.93,4,0,0,0.02
2013-8-11,80,73,68,72,70,67,100,89,68,30.11,30.02,5,0,0,0.00
2013-8-12,85,76,68,75,72,68,100,88,65,30.03,29.92,5,0,0,0.00
2013-8-13,83,77,70,75,72,68,100,85,64,29.91,29.73,11,1,0,0.93
2013-8-14,74,66,58,70,56,50,100,73,51,30.09,29.79,8,1,5,0.00
2013-8-15,74,64,54,59,55,50,98,76,47,30.18,30.09,7,0,0,0.00
2013-8-16,76,66,54,65,58,52,100,80,46,30.20,30.13,4,0,0,0.00
2013-8-17,78,68,57,65,61,57,100,82,52,30.27,30.19,8,0,0,0.00
2013-8-18,72,67,63,68,65,62,100,92,78,30.22,30.15,6,0,0,0.17
2013-8-19,74,68,62,68,65,62,100,92,79,30.18,30.08,3,0,0,0.00
2013-8-20,83,73,62,73,69,62,100,89,68,30.16,30.08,11,1,5,0.00
2013-8-21,86,76,67,76,72,67,100,89,68,30.20,30.07,9,1,0,0.28
2013-8-22,86,77,71,75,71,68,100,84,55,30.10,29.92,5,1,0,0.07
2013-8-23,76,70,61,73,67,61,100,91,75,30.10,29.93,3,0,0,0.01
2013-8-24,81,69,60,66,62,59,98,81,51,30.34,30.11,7,0,0,0.01
2013-8-25,78,68,58,67,58,47,100,76,36,30.42,30.28,9,0,0,0.00
2013-8-26,86,72,61,68,63,58,90,75,45,30.30,30.01,6,0,0,0.00
2013-8-27,88,77,69,77,71,66,99,82,58,30.00,29.87,6,0,0,0.00
2013-8-28,82,74,71,76,73,70,100,96,74,29.90,29.82,4,0,0,0.09
2013-8-29,83,75,70,73,71,69,100,90,63,30.02,29.83,6,0,0,0.02
2013-8-30,84,74,65,74,70,65,100,87,63,30.04,29.90,7,1,0,0.00
2013-8-31,88,78,71,76,73,70,97,83,63,29.92,29.80,8,1,7,0.00